COSMOS 2457 (733) (36112 NORAD) Tracking and Keplerian Element Data

This shows tracking and keplerian element data for the satellite.

Feedback or suggestion? Click here.




ElementValue
Catalog36112
NameCOSMOS 2457 (733)
Epoch Orbit6997
Epoch Day344.98398242
Epoch Year2018
RAAN164.9659
Inclination64.1748
Eccentricity0.000686
Argument of Perigee147.7459
Mean Anonmoly215.2421
Mean Motion2.13101523
Decay Rate6.4E-07
L11 36112U 09070B 18344.98398242 .00000064 00000-0 00000+0 0 9993
L22 36112 64.1748 164.9659 0006860 147.7459 215.2421 2.13101523 69978

Live tracking and technical data element details for COSMOS 2457 (733) (NORAD 36112). COSMOS 2457 (733) can be tracked NOW for your location showing map with azimuth and elevation plus other details from your city location.

Track the satellite on the map from your city or location and see movement details for azimuth, elevation, latitude, longitude, range, height, and movement on the map or in text.







IsCatalogInMostPopularTable: catalog: 36112, numindb: 61
Update: records affected: 1



GetName: 36112 COSMOS 2457 (733)

Hit Count: updated at: Thu, 13 Dec 2018 03:28:35 GMT